• In Spain
  • List of Countries
  • For 7 days
  • Water Temperature
  • Satellite Maps
  • Weather Map
  • Weather Widgets
  • user-avatar
    Login

    Hourly Weather Banja Luka

    Today, 23 September, Sunday

    Time Temperature Precipitation Wind Pressure Humidity
    00:00 +13°C° 0 mm 1 mps 719 mmHg 86%
    01:00 +13°C° 0 mm 1 mps 718 mmHg 87%
    02:00 +13°C° 0 mm 1 mps 718 mmHg 88%
    03:00 +12°C° 0 mm 0 mps 718 mmHg 88%
    04:00 +12°C° 0 mm 0 mps 718 mmHg 89%
    05:00 +13°C° 0 mm 0 mps 718 mmHg 86%
    06:00 +14°C° 0 mm 0 mps 718 mmHg 84%
    07:00 +15°C° 0 mm 0 mps 719 mmHg 81%
    08:00 +18°C° 0 mm 0 mps 719 mmHg 72%
    09:00 +23°C° 0 mm 1 mps 719 mmHg 63%
    10:00 +25°C° 0 mm 1 mps 720 mmHg 55%
    11:00 +27°C° 0 mm 1 mps 719 mmHg 53%
    12:00 +28°C° 0 mm 1 mps 719 mmHg 51%
    13:00 +29°C° 0 mm 1 mps 719 mmHg 49%
    14:00 +28°C° 0 mm 1 mps 718 mmHg 52%
    15:00 +28°C° 0 mm 1 mps 718 mmHg 54%
    16:00 +27°C° 0 mm 1 mps 717 mmHg 57%
    17:00 +25°C° 0 mm 1 mps 717 mmHg 66%
    18:00 +23°C° 0 mm 1 mps 716 mmHg 74%
    19:00 +20°C° 0 mm 1 mps 715 mmHg 82%
    20:00 +19°C° 0 mm 2 mps 715 mmHg 84%
    21:00 +18°C° 0 mm 2 mps 715 mmHg 87%
    22:00 +18°C° 0 mm 2 mps 715 mmHg 89%
    23:00 +18°C° 0 mm 2 mps 714 mmHg 86%

    Tomorrow, 24 September, Monday

    Time Temperature Precipitation Wind Pressure Humidity
    00:00 +18°C° 0 mm 3 mps 714 mmHg 84%
    01:00 +18°C° 0 mm 3 mps 713 mmHg 81%
    02:00 +18°C° 0 mm 3 mps 713 mmHg 80%
    03:00 +18°C° 0 mm 3 mps 713 mmHg 78%
    04:00 +18°C° 0 mm 3 mps 713 mmHg 77%
    05:00 +18°C° 0.3 mm 3 mps 714 mmHg 81%
    06:00 +18°C° 0.3 mm 3 mps 715 mmHg 84%
    07:00 +18°C° 0.3 mm 2 mps 716 mmHg 88%
    08:00 +16°C° 1.1 mm 3 mps 717 mmHg 89%
    09:00 +13°C° 1.1 mm 3 mps 718 mmHg 90%
    10:00 +11°C° 1.1 mm 3 mps 719 mmHg 91%
    11:00 +11°C° 0.4 mm 3 mps 720 mmHg 90%
    12:00 +10°C° 0.4 mm 3 mps 720 mmHg 89%
    13:00 +9°C° 0.4 mm 2 mps 721 mmHg 89%
    14:00 +9°C° 0.3 mm 2 mps 721 mmHg 89%
    15:00 +9°C° 0.3 mm 2 mps 721 mmHg 89%
    16:00 +9°C° 0.3 mm 2 mps 721 mmHg 89%
    17:00 +9°C° 0 mm 2 mps 721 mmHg 88%
    18:00 +9°C° 0 mm 1 mps 722 mmHg 87%
    19:00 +9°C° 0 mm 1 mps 722 mmHg 86%
    20:00 +8°C° 0 mm 1 mps 722 mmHg 87%
    21:00 +8°C° 0 mm 1 mps 723 mmHg 87%
    22:00 +7°C° 0 mm 1 mps 723 mmHg 88%
    23:00 +6°C° 0 mm 1 mps 723 mmHg 88%

    Day after tomorrow, 25 September, Tuesday

    Time Temperature Precipitation Wind Pressure Humidity
    00:00 +6°C° 0 mm 1 mps 723 mmHg 89%
    01:00 +6°C° 0 mm 1 mps 724 mmHg 90%
    02:00 +5°C° 0 mm 1 mps 724 mmHg 90%
    03:00 +5°C° 0 mm 1 mps 724 mmHg 90%
    04:00 +5°C° 0 mm 1 mps 724 mmHg 91%
    05:00 +5°C° 0 mm 1 mps 724 mmHg 89%
    06:00 +6°C° 0 mm 1 mps 725 mmHg 87%
    07:00 +5°C° 0 mm 2 mps 725 mmHg 85%
    08:00 +7°C° 0 mm 2 mps 726 mmHg 74%
    09:00 +8°C° 0 mm 3 mps 726 mmHg 63%
    10:00 +10°C° 0 mm 4 mps 726 mmHg 52%
    11:00 +11°C° 0 mm 4 mps 726 mmHg 48%
    12:00 +12°C° 0 mm 5 mps 726 mmHg 43%
    13:00 +12°C° 0 mm 5 mps 726 mmHg 39%
    14:00 +12°C° 0 mm 5 mps 726 mmHg 40%
    15:00 +12°C° 0 mm 5 mps 726 mmHg 41%
    16:00 +10°C° 0 mm 5 mps 726 mmHg 42%
    17:00 +8°C° 0 mm 4 mps 726 mmHg 49%
    18:00 +7°C° 0 mm 3 mps 726 mmHg 56%
    19:00 +5°C° 0 mm 2 mps 726 mmHg 63%
    20:00 +5°C° 0 mm 2 mps 727 mmHg 66%
    21:00 +4°C° 0 mm 2 mps 727 mmHg 68%
    22:00 +5°C° 0 mm 1 mps 727 mmHg 71%
    23:00 +4°C° 0 mm 1 mps 727 mmHg 72%

    26 September, Wednesday

    Time Temperature Precipitation Wind Pressure Humidity
    00:00 +4°C° 0 mm 1 mps 727 mmHg 73%
    01:00 +3°C° 0 mm 1 mps 728 mmHg 75%
    02:00 +3°C° 0 mm 1 mps 728 mmHg 76%
    03:00 +3°C° 0 mm 1 mps 728 mmHg 78%
    04:00 +3°C° 0 mm 1 mps 728 mmHg 79%
    05:00 +3°C° 0 mm 1 mps 728 mmHg 75%
    06:00 +4°C° 0 mm 1 mps 728 mmHg 71%
    07:00 +5°C° 0 mm 1 mps 728 mmHg 67%
    08:00 +8°C° 0 mm 1 mps 729 mmHg 58%
    09:00 +9°C° 0 mm 2 mps 729 mmHg 48%
    10:00 +13°C° 0 mm 2 mps 729 mmHg 39%
    11:00 +14°C° 0 mm 2 mps 729 mmHg 37%
    12:00 +15°C° 0 mm 2 mps 729 mmHg 35%
    13:00 +16°C° 0 mm 2 mps 728 mmHg 32%
    14:00 +16°C° 0 mm 2 mps 728 mmHg 34%
    15:00 +15°C° 0 mm 2 mps 728 mmHg 36%
    16:00 +15°C° 0 mm 2 mps 727 mmHg 39%
    17:00 +13°C° 0 mm 1 mps 727 mmHg 46%
    18:00 +10°C° 0 mm 1 mps 727 mmHg 54%
    19:00 +7°C° 0 mm 1 mps 727 mmHg 61%
    20:00 +7°C° 0 mm 1 mps 727 mmHg 62%
    21:00 +7°C° 0 mm 1 mps 727 mmHg 63%
    22:00 +6°C° 0 mm 1 mps 727 mmHg 64%
    23:00 +6°C° 0 mm 1 mps 726 mmHg 63%

    27 September, Thursday

    Time Temperature Precipitation Wind Pressure Humidity
    00:00 +6°C° 0 mm 1 mps 726 mmHg 62%
    01:00 +6°C° 0 mm 1 mps 726 mmHg 62%
    02:00 +6°C° 0 mm 1 mps 725 mmHg 59%
    03:00 +6°C° 0 mm 1 mps 725 mmHg 57%
    04:00 +6°C° 0 mm 1 mps 725 mmHg 55%
    05:00 +7°C° 0 mm 1 mps 725 mmHg 53%
    06:00 +8°C° 0 mm 1 mps 725 mmHg 51%
    07:00 +9°C° 0 mm 1 mps 725 mmHg 49%
    08:00 +12°C° 0 mm 1 mps 725 mmHg 42%
    09:00 +15°C° 0 mm 1 mps 726 mmHg 36%
    10:00 +19°C° 0 mm 1 mps 726 mmHg 29%
    11:00 +20°C° 0 mm 1 mps 725 mmHg 27%
    12:00 +21°C° 0 mm 1 mps 725 mmHg 26%
    13:00 +21°C° 0 mm 2 mps 725 mmHg 24%
    14:00 +21°C° 0 mm 2 mps 724 mmHg 28%
    15:00 +20°C° 0 mm 2 mps 724 mmHg 32%
    16:00 +20°C° 0 mm 1 mps 723 mmHg 35%
    17:00 +18°C° 0 mm 1 mps 723 mmHg 40%
    18:00 +14°C° 0 mm 1 mps 723 mmHg 45%
    19:00 +11°C° 0 mm 1 mps 722 mmHg 50%
    20:00 +11°C° 0 mm 1 mps 722 mmHg 51%
    21:00 +10°C° 0 mm 1 mps 722 mmHg 51%
    22:00 +10°C° 0 mm 1 mps 722 mmHg 51%
    23:00 +10°C° 0 mm 1 mps 722 mmHg 50%

    28 September, Friday

    Time Temperature Precipitation Wind Pressure Humidity
    00:00 +9°C° 0 mm 1 mps 721 mmHg 49%
    01:00 +9°C° 0 mm 1 mps 721 mmHg 48%
    02:00 +9°C° 0 mm 1 mps 721 mmHg 47%
    03:00 +9°C° 0 mm 1 mps 720 mmHg 46%
    04:00 +9°C° 0 mm 1 mps 720 mmHg 45%
    05:00 +10°C° 0 mm 1 mps 720 mmHg 45%
    06:00 +10°C° 0 mm 1 mps 720 mmHg 46%
    07:00 +11°C° 0 mm 1 mps 720 mmHg 47%
    08:00 +14°C° 0 mm 1 mps 720 mmHg 41%
    09:00 +18°C° 0 mm 1 mps 720 mmHg 36%
    10:00 +21°C° 0 mm 1 mps 720 mmHg 31%
    11:00 +22°C° 0 mm 1 mps 720 mmHg 30%
    12:00 +23°C° 0 mm 1 mps 719 mmHg 30%
    13:00 +24°C° 0 mm 2 mps 719 mmHg 29%
    14:00 +24°C° 0 mm 2 mps 718 mmHg 33%
    15:00 +23°C° 0 mm 2 mps 718 mmHg 37%
    16:00 +23°C° 0 mm 1 mps 717 mmHg 40%
    17:00 +20°C° 0 mm 1 mps 717 mmHg 47%
    18:00 +16°C° 0 mm 1 mps 716 mmHg 53%
    19:00 +12°C° 0 mm 0 mps 716 mmHg 59%
    20:00 +13°C° 0 mm 1 mps 716 mmHg 60%
    21:00 +12°C° 0 mm 1 mps 716 mmHg 61%
    22:00 +12°C° 0 mm 1 mps 716 mmHg 62%
    23:00 +12°C° 0 mm 1 mps 715 mmHg 63%
    Show more